Temperature
18 18 18 18 18 17 17 16 16 16 15 14 13 13 14 15 15 14 14 14 13 13 12 12 12 12 12 11 11 11 11 11 11 11 11 11 11 11 10 10 10 10 10 9
18 18 18 17 17 17 17 16 16 15 14 13 14 14 14 14 14 13 13 13 12 12 11 11 11 11 10 10 10 10 10 10 10 10 10 10 10 10 10 10 10 10 9 9
17 17 17 17 17 17 16 16 15 14 14 13 12 12 13 14 13 13 12 12 11 11 10 10 10 9 9 9 9 9 9 9 9 9 9 9 9 9 9 9 9 9 9 9
15 17 18 16 17 17 16 15 14 14 13 13 13 13 13 13 13 12 11 11 10 10 9 9 9 9 8 8 8 8 7 8 8 8 8 8 8 8 9 9 9 9 9 9
14 16 17 17 17 16 15 14 14 13 12 13 13 12 12 13 12 11 10 10 9 9 8 8 8 7 7 7 7 7 7 6 6 6 6 7 7 7 7 8 8 8 8 8
14 17 17 17 17 17 15 14 14 13 12 12 11 8 10 12 11 10 10 9 8 8 8 7 7 7 6 6 6 6 6 5 5 6 6 6 6 6 6 7 7 7 7 8
15 16 15 16 16 16 15 14 14 14 13 12 10 10 11 11 10 9 9 8 8 7 7 7 6 6 5 5 5 5 5 5 5 5 5 5 5 5 5 6 6 6 7 7
13 15 16 16 15 14 14 15 14 14 13 12 12 11 11 10 9 8 8 7 7 6 6 6 6 5 5 5 5 5 5 5 5 5 5 5 5 5 5 5 5 5 6 6
14 14 15 16 16 16 15 15 14 13 13 12 11 10 10 9 8 8 7 7 6 6 6 6 5 5 5 5 5 5 4 4 4 4 4 4 4 5 5 5 5 5 5 6
13 13 15 16 16 15 15 14 13 13 12 11 10 9 9 8 8 7 7 6 6 5 5 5 5 5 5 5 5 4 4 4 4 4 4 4 4 4 4 4 5 5 5 5
14 14 15 15 15 15 14 14 13 12 11 10 9 9 8 7 7 7 6 6 5 5 5 5 5 5 5 5 5 4 4 4 4 4 4 4 4 4 4 4 4 5 5 5
14 16 14 16 16 15 14 13 12 12 11 10 9 8 8 7 7 6 6 5 5 5 5 5 5 5 5 5 4 4 4 4 4 4 4 4 4 4 4 4 4 4 5 5
19 18 17 16 15 14 13 13 12 11 10 9 9 8 7 7 6 6 6 5 5 5 5 5 5 5 5 5 5 4 4 4 4 4 4 4 4 4 4 4 4 5 5 5
18 17 16 16 15 14 13 12 11 10 10 9 8 8 7 7 6 6 6 5 5 5 5 5 5 5 5 5 5 5 5 5 4 4 4 4 4 4 4 4 4 5 5 5
18 17 16 15 14 13 13 12 11 10 9 9 8 8 7 6 6 6 6 5 5 5 5 5 5 5 5 5 5 5 5 5 5 5 4 4 4 4 4 4 5 5 5 5
17 16 16 15 14 13 12 11 10 10 9 8 8 7 7 7 6 6 6 6 5 5 5 5 5 5 5 5 5 5 5 5 5 5 5 5 5 5 5 5 5 5 5 5
17 16 16 15 14 13 12 11 10 9 9 8 8 7 7 7 7 6 6 6 6 5 5 5 5 5 5 5 5 5 5 5 5 5 5 5 5 5 5 5 5 5 5 5
18 17 16 15 14 13 12 11 10 9 9 8 8 7 7 6 6 6 6 6 6 6 6 6 5 6 6 6 5 5 5 5 5 5 5 5 5 5 5 5 5 5 5 5
17 17 16 14 13 12 11 11 10 9 9 8 8 7 7 6 6 6 6 6 5 5 6 6 6 6 6 6 6 6 6 6 6 5 5 5 5 5 5 5 5 5 5 6
17 16 15 14 13 12 11 10 10 9 9 8 8 7 7 7 6 6 6 6 5 5 5 6 6 6 6 6 6 6 6 6 6 6 6 6 6 5 5 5 5 6 6 6
17 16 15 14 13 12 11 10 10 9 9 8 8 7 7 7 6 6 6 6 6 6 6 6 6 6 6 6 6 6 6 6 6 6 6 6 6 6 6 6 6 6 6 6
17 16 14 13 13 12 11 10 10 9 8 8 8 7 7 7 7 7 6 5 6 6 6 6 6 6 6 7 7 6 6 6 6 6 6 6 6 6 6 6 6 6 6 6
16 15 14 13 12 12 11 10 10 9 8 8 8 7 7 7 6 6 6 6 6 6 6 6 6 6 7 7 7 7 7 6 6 6 6 6 6 6 6 6 7 7 7 7
16 15 14 13 12 12 11 10 10 9 8 8 7 7 7 7 7 6 6 6 6 6 6 7 7 7 7 7 7 7 7 7 7 7 7 7 7 7 7 7 7 7 7 7
15 15 14 13 12 12 11 10 9 9 8 8 7 7 7 6 6 6 6 6 6 6 7 7 7 7 7 7 7 7 7 7 7 7 7 7 7 7 7 7 7 8 8 8
15 14 14 13 13 12 11 10 10 9 8 8 7 7 7 7 7 6 6 6 6 6 7 7 7 7 7 7 7 7 7 7 7 7 7 7 7 8 8 8 8 8 8 8
15 14 13 13 12 12 11 10 10 9 8 8 7 7 7 7 7 7 6 6 6 6 7 7 7 7 7 7 7 7 8 8 8 8 8 8 8 8 8 8 8 8 9 9
Wind_Speed
0 1 3 3 4 4 4 2 3 6 6 6 4 5 6 7 9 10 10 10 10 10 10 10 11 11 11 11 12 11 11 11 13 13 13 12 12 12 11 11 11 11 10 10
3 4 5 4 5 3 2 1 3 4 6 5 5 5 7 9 10 11 11 11 11 11 11 11 11 12 12 12 12 11 11 12 13 12 12 12 12 12 11 11 11 10 10 11
2 2 3 2 2 1 3 4 5 6 6 5 7 8 8 10 11 11 12 12 12 11 12 12 12 12 12 12 11 11 11 13 12 12 12 12 13 11 11 12 11 10 11 11
2 2 3 5 3 3 5 6 5 6 6 7 10 9 9 10 10 11 11 11 12 11 12 12 12 12 12 12 12 12 12 13 12 12 13 12 12 12 11 10 9 10 11 11
3 1 4 3 3 3 3 7 5 6 8 8 8 8 7 9 7 9 11 11 11 12 13 12 13 13 12 13 12 13 13 13 13 12 12 12 12 12 11 9 10 9 8 10
4 1 4 5 2 1 1 6 5 5 8 8 6 7 8 7 8 10 11 10 11 12 13 13 14 13 13 14 14 14 14 14 13 12 12 12 12 11 9 9 10 10 10 10
3 3 7 5 1 2 1 6 3 5 7 7 6 8 9 11 10 9 11 13 13 13 13 14 14 13 14 15 15 15 14 14 14 12 12 13 12 10 10 9 9 9 10 9
4 1 6 3 4 5 8 4 3 5 6 7 9 10 10 10 10 11 12 13 13 13 14 14 14 14 15 16 15 15 15 15 14 12 13 12 10 9 9 9 9 9 9 9
7 7 6 5 7 5 5 4 5 5 7 7 8 8 9 8 10 11 13 13 13 14 16 15 14 14 16 17 15 15 15 14 13 13 11 10 10 10 8 8 8 8 7 8
3 7 6 5 4 3 4 5 5 5 7 6 7 9 10 10 10 11 12 14 13 15 16 17 16 15 15 16 15 15 14 13 12 11 10 9 8 7 7 7 8 8 8 8
4 6 4 6 7 5 4 3 4 4 4 5 7 9 9 9 11 12 13 12 13 15 17 18 18 17 16 16 14 14 14 12 11 10 9 8 7 6 7 7 7 8 7 7
7 8 7 6 5 5 4 4 4 4 5 6 6 8 9 10 10 12 14 14 15 16 17 18 18 17 16 15 14 14 12 11 8 8 7 6 6 6 8 9 10 12 11 8
6 5 6 4 3 4 3 3 3 3 5 7 7 7 8 9 9 11 14 15 16 17 17 17 18 17 16 15 15 14 13 11 8 7 7 6 5 4 4 3 5 7 9 10
5 6 4 4 4 3 2 1 1 3 5 6 6 8 9 9 11 13 15 16 16 17 17 16 17 17 16 16 15 14 12 11 9 6 6 5 3 3 2 2 1 1 2 4
8 7 6 4 4 3 2 1 2 5 6 7 6 8 10 11 13 14 15 15 16 16 17 17 17 17 17 16 15 13 11 8 7 5 5 4 2 2 1 1 1 1 2 2
8 5 5 5 5 4 2 2 3 6 6 6 7 9 10 11 13 14 14 14 16 17 17 17 17 17 17 16 14 11 9 11 9 5 4 3 2 1 0 0 1 2 2 3
9 7 7 6 6 5 4 5 5 6 6 7 8 10 11 12 13 14 15 16 15 14 14 15 17 18 16 15 13 9 8 8 9 6 4 3 2 1 1 1 1 1 2 4
9 9 9 8 6 6 5 5 5 5 5 6 8 9 10 12 13 15 16 16 15 14 13 15 17 18 16 15 12 8 7 6 5 5 3 3 2 2 1 1 2 3 3 4
8 9 9 8 8 6 5 5 5 5 5 6 7 9 10 10 11 13 14 14 14 16 17 18 21 17 15 15 15 7 7 6 5 4 3 3 3 2 2 2 3 4 4 4
8 8 9 8 7 5 5 4 4 4 4 5 6 8 10 11 12 13 13 11 10 11 16 17 16 14 14 14 15 7 7 6 5 4 4 3 3 3 3 3 3 4 4 4
10 9 9 8 6 5 5 4 3 3 4 4 5 7 9 11 11 11 12 11 12 15 17 16 13 13 12 13 12 7 6 6 5 4 4 4 3 3 4 4 4 4 4 4
10 9 9 7 6 5 4 3 3 3 3 4 5 6 8 10 11 11 9 8 12 17 14 11 11 15 17 13 8 7 7 6 5 4 4 3 4 4 4 4 4 4 4 3
8 8 8 7 7 5 3 3 3 3 3 4 5 6 7 8 8 8 10 10 12 16 13 10 16 21 19 10 8 8 8 7 6 5 4 3 3 3 4 4 4 4 4 3
8 8 7 6 6 5 5 4 3 3 3 3 4 5 5 7 6 5 7 12 14 15 11 12 17 19 15 9 9 8 8 8 7 6 5 4 4 4 4 4 4 4 3 3
8 7 6 7 7 6 6 4 3 2 2 3 4 5 4 4 5 8 9 11 13 13 11 13 16 16 12 10 9 9 8 8 7 6 5 5 4 4 3 3 3 3 3 2
8 8 8 9 8 6 5 5 4 3 2 2 3 4 5 5 6 7 8 10 12 12 10 10 11 11 10 10 10 10 9 8 8 7 6 5 4 4 3 3 3 3 3 3
7 6 5 5 5 6 6 6 5 4 3 2 2 3 4 5 6 7 9 9 9 9 9 9 9 9 9 9 9 9 9 8 8 7 7 6 5 4 3 3 3 3 3 3
Wind_Direction
7 342 105 78 53 59 82 148 209 263 260 267 277 283 285 288 293 298 296 294 291 287 286 286 287 285 282 279 279 276 273 269 264 262 259 257 255 252 247 241 239 235 235 237
32 45 76 70 38 53 53 300 257 266 268 251 277 287 287 288 290 292 292 292 289 288 288 287 286 285 285 282 280 279 275 273 272 270 266 261 256 253 250 246 242 234 232 235
218 284 9 296 254 242 254 243 234 247 259 289 296 289 282 285 289 290 290 290 290 291 288 287 287 286 284 282 281 280 277 276 273 270 268 265 263 257 250 248 242 236 235 233
119 77 260 251 237 213 236 253 229 241 266 277 270 277 277 277 281 286 290 292 294 293 292 290 289 289 286 287 283 281 280 278 275 271 268 267 262 256 250 247 243 240 238 234
113 209 285 269 224 199 242 276 223 238 270 281 294 315 293 278 279 281 288 291 291 292 294 293 294 293 293 293 289 286 284 281 278 273 270 266 261 257 252 247 246 241 238 232
117 170 256 253 241 214 151 288 236 236 271 286 318 318 291 291 304 301 299 299 299 299 300 300 299 298 298 296 294 292 290 286 281 274 269 266 260 257 254 248 247 245 242 234
141 226 266 252 258 72 235 269 247 242 266 279 264 251 275 299 302 296 297 299 300 302 304 302 302 302 300 299 296 295 294 290 284 277 272 267 261 254 250 248 247 244 243 240
145 201 273 216 146 185 224 247 256 262 268 271 269 276 289 298 299 304 304 304 305 307 306 305 304 304 303 300 299 298 296 292 288 282 278 277 262 253 246 243 243 243 242 243
185 212 240 224 210 215 185 222 253 258 273 279 283 289 297 296 298 301 303 306 308 309 310 310 309 308 306 305 305 304 301 297 292 289 282 273 264 257 249 240 239 239 234 236
230 259 243 232 231 229 207 225 253 265 279 284 287 292 296 296 300 305 306 311 312 314 316 317 317 314 309 309 309 307 304 302 296 291 287 276 264 255 246 239 235 231 229 230
240 267 270 255 232 228 233 249 274 289 285 286 288 291 292 299 305 309 312 313 314 317 319 319 319 317 316 315 314 310 306 302 299 291 287 283 269 254 247 239 228 223 225 220
217 217 196 235 228 201 213 245 268 285 297 298 289 287 297 303 304 308 314 317 320 321 321 320 320 319 319 319 317 313 310 307 302 298 293 285 277 272 249 241 235 227 226 221
204 187 183 216 185 177 199 235 260 273 282 294 297 295 300 303 304 309 316 322 324 322 321 320 321 321 323 324 322 316 312 309 303 301 298 290 282 274 278 263 241 232 226 221
175 139 166 197 195 185 188 221 277 296 294 292 292 300 305 306 311 319 322 323 322 321 321 322 324 326 327 327 325 321 317 313 312 306 306 301 291 281 263 254 246 190 196 208
185 181 186 178 157 153 157 210 297 302 302 304 300 305 312 317 319 319 320 322 324 325 326 328 328 329 329 328 327 324 322 317 315 314 314 310 302 290 268 239 211 151 122 92
176 167 161 165 182 188 199 249 271 285 293 297 304 311 314 314 314 317 321 327 330 328 328 329 331 330 330 329 328 328 326 327 334 331 329 330 326 316 277 157 144 150 149 139
151 179 192 200 207 210 222 238 250 268 284 296 303 309 316 321 324 329 330 330 326 322 324 331 332 331 332 333 331 330 331 333 341 343 341 341 347 5 72 108 121 134 142 153
176 179 177 180 188 206 232 249 259 272 279 290 305 316 323 326 326 327 327 328 329 331 337 339 336 334 335 337 337 334 336 338 341 344 349 1 7 23 57 80 96 102 105 116
163 164 169 175 178 187 210 235 252 267 284 302 313 317 316 317 319 323 326 330 336 340 340 337 333 336 338 340 342 337 344 350 353 359 6 18 32 46 63 77 88 97 108 115
161 163 168 176 180 186 208 228 244 267 291 306 313 319 325 327 328 330 331 330 333 335 331 331 333 338 339 339 343 341 348 356 4 7 13 27 40 56 71 84 94 100 108 120
170 170 175 182 191 202 210 212 218 260 292 307 314 317 319 322 327 331 334 335 336 339 336 331 338 341 340 337 337 346 353 1 8 10 17 29 42 59 72 84 92 99 108 117
176 177 183 185 190 208 218 210 213 250 289 307 316 321 326 330 333 333 324 324 329 334 337 338 343 342 343 342 350 356 359 3 9 16 28 42 55 66 72 80 88 98 108 112
176 178 181 187 193 204 212 212 219 239 273 298 313 321 323 320 323 329 333 331 334 333 337 341 342 344 347 356 360 3 5 7 10 17 29 49 63 73 79 81 85 93 101 105
176 180 184 180 168 178 206 223 225 237 261 285 297 310 318 324 324 317 318 320 331 334 339 341 345 350 354 3 3 6 8 9 10 14 26 44 62 71 78 82 85 88 92 96
178 177 173 170 185 203 210 204 209 239 269 291 306 318 324 318 313 320 326 332 339 343 346 347 352 355 2 4 5 6 7 9 9 14 25 36 52 63 68 73 80 86 87 83
182 188 196 196 196 192 182 178 192 221 243 279 302 319 330 330 327 329 335 340 346 349 353 355 357 359 3 3 5 5 5 5 11 17 20 23 36 51 63 73 81 79 77 75
191 186 188 196 195 182 173 174 185 202 213 231 278 317 333 340 343 346 349 351 354 357 359 359 1 4 4 5 5 4 5 7 9 11 13 17 23 31 46 63 69 75 80 78
Height
1511 1508 1508 1510 1511 1511 1514 1516 1522 1518 1515 1511 1509 1507 1505 1503 1501 1498 1495 1492 1489 1485 1481 1478 1474 1470 1466 1462 1459 1455 1451 1448 1445 1442 1440 1438 1437 1436 1435 1434 1434 1435 1435 1435
1513 1511 1510 1514 1513 1512 1513 1514 1515 1515 1514 1508 1507 1505 1503 1501 1498 1494 1491 1488 1484 1480 1476 1471 1467 1462 1458 1454 1450 1446 1442 1438 1435 1433 1430 1428 1427 1426 1425 1425 1425 1426 1426 1427
1521 1515 1515 1520 1515 1513 1513 1512 1513 1516 1512 1506 1505 1503 1501 1497 1494 1491 1487 1483 1479 1474 1470 1465 1460 1455 1450 1445 1441 1437 1433 1429 1426 1423 1421 1419 1418 1416 1416 1416 1416 1416 1417 1418
1524 1522 1526 1519 1509 1509 1510 1509 1508 1508 1507 1505 1503 1500 1497 1494 1491 1487 1483 1478 1473 1468 1462 1457 1452 1447 1441 1436 1432 1427 1423 1419 1416 1413 1411 1409 1407 1406 1406 1407 1407 1407 1408 1410
1527 1526 1521 1514 1508 1508 1511 1510 1506 1506 1504 1502 1500 1496 1492 1491 1487 1483 1478 1473 1467 1462 1456 1450 1444 1439 1433 1427 1422 1418 1413 1409 1406 1403 1400 1398 1397 1396 1396 1396 1397 1398 1399 1401
1525 1523 1526 1514 1506 1505 1509 1511 1504 1503 1502 1500 1498 1498 1490 1486 1482 1478 1473 1468 1461 1455 1449 1443 1437 1431 1424 1418 1413 1408 1404 1400 1396 1393 1390 1388 1387 1386 1386 1387 1387 1389 1390 1392
1523 1523 1518 1507 1504 1506 1515 1511 1502 1500 1499 1497 1495 1493 1487 1482 1478 1473 1468 1462 1456 1449 1442 1436 1429 1423 1417 1411 1405 1400 1395 1391 1387 1383 1381 1378 1377 1376 1377 1377 1378 1379 1381 1383
1525 1524 1519 1502 1503 1506 1505 1499 1499 1497 1496 1494 1491 1487 1483 1478 1473 1468 1462 1455 1449 1442 1435 1429 1423 1416 1409 1403 1397 1392 1386 1382 1378 1374 1371 1369 1368 1367 1368 1368 1369 1371 1373 1375
1513 1512 1501 1499 1499 1498 1498 1497 1496 1495 1493 1490 1487 1483 1478 1474 1468 1463 1456 1450 1443 1436 1428 1422 1416 1410 1402 1395 1390 1384 1379 1374 1370 1366 1363 1361 1360 1359 1359 1360 1361 1363 1365 1367
1505 1500 1497 1496 1496 1496 1496 1495 1494 1492 1490 1487 1483 1479 1475 1470 1464 1458 1451 1444 1437 1430 1422 1415 1409 1403 1397 1390 1383 1377 1372 1367 1363 1359 1356 1354 1353 1352 1352 1353 1354 1356 1358 1360
1501 1496 1494 1493 1493 1493 1493 1492 1491 1489 1487 1484 1480 1476 1471 1465 1459 1453 1446 1439 1432 1425 1418 1410 1404 1397 1391 1384 1378 1372 1366 1361 1357 1354 1351 1349 1347 1347 1346 1347 1348 1350 1352 1354
1496 1490 1491 1490 1490 1490 1490 1489 1488 1486 1483 1481 1477 1472 1467 1461 1455 1449 1442 1434 1427 1420 1414 1406 1399 1392 1386 1380 1373 1367 1361 1356 1352 1349 1346 1344 1343 1342 1342 1342 1343 1345 1347 1349
1486 1486 1487 1487 1487 1488 1487 1487 1485 1483 1481 1477 1473 1469 1464 1457 1451 1445 1438 1430 1423 1417 1410 1403 1396 1389 1382 1375 1369 1363 1357 1353 1349 1346 1343 1341 1340 1339 1339 1339 1340 1342 1344 1346
1483 1484 1485 1485 1485 1485 1485 1484 1483 1481 1478 1474 1470 1465 1460 1454 1447 1441 1434 1427 1420 1414 1407 1400 1393 1385 1379 1372 1366 1360 1355 1351 1347 1344 1341 1339 1338 1337 1337 1337 1338 1339 1341 1344
1481 1482 1483 1483 1483 1483 1482 1481 1480 1477 1475 1471 1467 1462 1456 1450 1444 1437 1431 1424 1418 1411 1404 1397 1390 1383 1376 1369 1364 1358 1353 1349 1346 1343 1341 1339 1337 1337 1336 1337 1337 1339 1340 1342
1477 1479 1480 1480 1480 1480 1480 1479 1477 1474 1471 1468 1464 1459 1454 1448 1441 1435 1428 1422 1415 1408 1401 1395 1388 1381 1374 1368 1362 1357 1352 1349 1346 1343 1341 1339 1338 1337 1337 1337 1338 1339 1340 1342
1474 1475 1477 1477 1478 1478 1477 1476 1474 1472 1469 1465 1461 1456 1451 1445 1438 1431 1425 1419 1413 1407 1401 1394 1387 1380 1373 1367 1362 1357 1353 1349 1346 1344 1342 1340 1339 1338 1338 1338 1339 1340 1341 1343
1471 1473 1474 1475 1475 1475 1474 1473 1471 1469 1466 1463 1458 1454 1448 1442 1436 1429 1423 1417 1411 1405 1399 1393 1386 1379 1374 1368 1362 1358 1354 1350 1348 1346 1343 1342 1341 1340 1340 1340 1340 1341 1342 1344
1468 1470 1471 1472 1472 1472 1471 1470 1469 1466 1464 1460 1456 1451 1446 1440 1434 1428 1422 1416 1409 1403 1397 1391 1385 1379 1374 1369 1364 1359 1356 1353 1350 1348 1346 1344 1343 1342 1342 1342 1343 1344 1345 1347
1465 1467 1468 1469 1469 1469 1468 1467 1466 1464 1461 1458 1453 1449 1444 1438 1433 1426 1421 1415 1410 1404 1398 1391 1385 1380 1375 1370 1365 1361 1358 1355 1352 1350 1348 1347 1346 1346 1345 1346 1347 1348 1349 1350
1462 1464 1465 1466 1466 1466 1466 1465 1463 1461 1458 1455 1451 1446 1442 1437 1431 1426 1419 1413 1409 1403 1397 1392 1386 1381 1376 1371 1367 1363 1360 1358 1355 1353 1352 1350 1349 1349 1349 1349 1350 1351 1353 1354
1459 1461 1462 1463 1464 1464 1463 1462 1461 1459 1456 1453 1449 1445 1440 1435 1429 1424 1420 1414 1408 1403 1397 1392 1387 1382 1378 1373 1369 1366 1363 1361 1358 1356 1355 1354 1353 1353 1353 1354 1354 1355 1357 1358
1456 1458 1460 1461 1461 1461 1461 1460 1458 1456 1454 1451 1447 1442 1438 1434 1429 1423 1418 1413 1408 1403 1398 1393 1389 1384 1380 1376 1372 1369 1366 1364 1362 1360 1358 1357 1357 1357 1358 1358 1359 1360 1361 1362
1454 1455 1457 1458 1458 1458 1458 1457 1456 1454 1452 1449 1445 1441 1436 1432 1428 1423 1418 1413 1409 1404 1399 1395 1390 1386 1382 1378 1375 1372 1369 1367 1365 1364 1362 1362 1361 1362 1362 1363 1364 1365 1366 1367
1450 1452 1453 1454 1454 1454 1454 1454 1453 1452 1449 1447 1443 1439 1435 1431 1427 1422 1418 1413 1409 1404 1400 1396 1392 1388 1384 1380 1377 1375 1373 1371 1369 1368 1367 1366 1366 1366 1367 1368 1369 1370 1371 1372
1445 1446 1448 1448 1449 1450 1450 1450 1450 1449 1447 1444 1441 1438 1434 1430 1426 1422 1418 1413 1409 1405 1401 1397 1393 1390 1386 1383 1380 1378 1376 1375 1373 1372 1371 1371 1371 1371 1371 1372 1373 1374 1375 1376
1440 1441 1443 1443 1444 1445 1445 1446 1446 1445 1444 1442 1439 1436 1432 1429 1425 1421 1418 1414 1409 1405 1402 1398 1395 1392 1389 1386 1383 1381 1380 1378 1377 1376 1376 1375 1375 1375 1375 1376 1377 1378 1380 1381